PST,Max TemperatureF,Mean TemperatureF,Min TemperatureF,Max Dew PointF,MeanDew PointF,Min DewpointF,Max Humidity, Mean Humidity, Min Humidity, Max Sea Level PressureIn, Mean Sea Level PressureIn, Min Sea Level PressureIn, Max VisibilityMiles, Mean VisibilityMiles, Min VisibilityMiles, Max Wind SpeedMPH, Mean Wind SpeedMPH, Max Gust SpeedMPH,PrecipitationIn, CloudCover, Events, WindDirDegrees
2012-1-1,49,30,10,11,7,3,73,46,19,30.72,30.59,30.46,10,10,9,9,3,10,0.00,0,,66
2012-1-2,50,33,16,13,10,5,62,42,21,30.58,30.46,30.37,10,10,9,13,5,15,0.00,0,,77
2012-1-3,59,38,17,12,9,4,62,38,14,30.55,30.45,30.34,10,10,9,14,4,17,0.00,0,,84
2012-1-4,56,36,15,13,8,4,59,39,18,30.68,30.55,30.45,10,10,9,8,3,9,0.00,0,,68
2012-1-5,60,38,16,21,12,6,63,41,19,30.48,30.31,30.18,10,10,6,12,3,13,0.00,1,,128
2012-1-6,46,29,11,29,20,9,82,61,40,30.30,30.16,30.05,10,10,10,17,2,21,0.00,3,,221
2012-1-7,36,23,9,30,20,6,89,72,54,30.55,30.26,30.05,10,9,2,23,7,29,0.01,6,Snow,295
2012-1-8,36,21,6,21,13,3,88,72,56,30.63,30.54,30.38,10,10,10,14,4,17,0.00,0,,193
2012-1-9,46,28,10,24,15,7,92,67,41,30.64,30.48,30.28,10,10,9,8,3,9,0.00,0,,76
2012-1-10,46,28,9,26,15,6,92,69,45,30.41,30.33,30.20,10,10,9,14,4,17,0.00,1,,134
2012-1-11,40,21,1,20,9,-1,86,60,33,30.51,30.40,30.27,10,10,10,12,3,15,0.00,0,,70
2012-1-12,43,25,7,9,3,-4,73,46,18,30.48,30.40,30.24,10,10,10,8,2,9,0.00,0,,67
2012-1-13,48,24,0,5,-2,-6,76,45,13,30.62,30.47,30.30,10,10,9,8,2,9,0.00,0,,81
2012-1-14,56,30,3,5,-1,-6,69,40,11,30.42,30.23,30.02,10,10,10,17,4,22,0.00,0,,293
2012-1-15,52,34,15,12,2,-4,60,36,12,29.98,29.82,29.68,10,10,9,26,7,32,0.00,1,,287
2012-1-16,26,13,-1,14,7,-6,87,63,39,30.38,30.08,29.82,10,8,2,18,5,22,0.01,5,Snow,294
2012-1-17,30,10,-10,5,-2,-12,83,56,28,30.49,30.33,30.12,10,10,9,17,4,21,0.00,3,,119
2012-1-18,48,35,21,28,22,5,85,58,31,30.23,30.12,30.02,10,8,1,31,13,43,0.01,8,Snow,226
2012-1-19,51,46,40,28,19,9,54,36,18,30.01,29.91,29.81,10,9,5,39,11,47,0.00,8,,230
2012-1-20,51,43,34,36,29,21,64,48,32,30.01,29.85,29.58,10,9,4,26,8,36,0.01,7,Rain,210
2012-1-21,51,39,27,36,30,19,96,64,31,30.01,29.62,29.46,10,7,0,36,13,47,0.47,7,Fog-Rain-Snow,232
2012-1-22,36,29,22,29,25,19,92,72,52,30.12,30.01,29.91,10,6,1,17,5,23,0.06,7,Snow,242
2012-1-23,35,26,17,32,28,15,100,85,69,30.17,29.83,29.74,10,5,0,14,5,23,0.26,7,Fog-Snow,245
2012-1-24,34,21,8,31,19,6,100,83,66,30.50,30.36,30.20,10,8,1,10,2,13,0.02,5,Snow,77
2012-1-25,39,32,24,36,30,25,100,91,82,30.51,30.41,30.33,10,7,0,7,1,9,0.06,5,Fog-Rain,297
2012-1-26,41,33,25,38,30,19,100,80,59,30.37,30.23,30.11,10,6,0,15,6,20,0.05,7,Fog-Rain,224
2012-1-27,34,24,14,17,13,9,81,62,43,30.64,30.49,30.32,10,10,10,16,3,22,0.00,0,,38
2012-1-28,36,22,7,19,11,2,80,62,43,30.76,30.66,30.49,10,10,10,8,3,9,0.00,0,,79
2012-1-29,44,30,15,23,16,9,81,59,36,30.61,30.39,30.19,10,10,8,9,3,12,0.00,0,,78
2012-1-30,48,35,22,25,22,18,84,60,36,30.16,30.11,30.04,10,10,10,14,2,18,0.00,2,,6
2012-1-31,47,33,19,26,22,15,91,68,45,30.23,30.16,30.06,10,10,10,12,4,13,0.00,0,,82